[[{"header":{"parameterUnit":"m.s-1","parameterCategory":1,"la1":30.2991,"la2":30.254,"lo1":-89.0895,"lo2":-89.0444,"dy":0.0017,"dx":0.0017,"nx":28,"ny":28,"refTime":"2024-06-05T03:00:00:Z","depth":0,"parameterNumber":2,"parameterNumberName":"U-component_of_WINDS"},"data":[0,0,0,0,0,0,0,0,0,0,0,0,0,0,0,0,0,0,0,0,0,0,0,0,0,0,0,0,0,0,0,0,0,0,0,0,0,0,0,0,0,0,0,0,0,0,0,0,0,0,0,0,0,0,0,0,0,0,0.1033,0.1034,0,0.1144,0.1145,0.1146,0.1158,0.1157,0.1156,0.1154,0.1281,0.1285,0.1289,0,0,0,0,0,0,0,0,0,0,0,0,0,0.0843,0.0847,0.1033,0.1035,0.1036,0.1144,0.1145,0.1147,0.1158,0.1157,0.1155,0.1154,0.1279,0.1284,0.129,0,0,0,0,0,0,0,0,0,0,0,0,0,0.0937,0.0848,0.1033,0.1054,0.1057,0.1143,0.1145,0.1147,0.1158,0.1157,0.1155,0.1153,0.1277,0.1284,0.129,0.1367,0,0,0.1311,0.1314,0,0,0,0,0,0,0,0,0.0932,0.0944,0.105,0.1053,0.1056,0.1135,0.1125,0.1221,0.1159,0.112,0.1154,0.1152,0.1234,0.1245,0.127,0.1373,0.1378,0.1311,0.1316,0.1318,0.132,0,0,0,0,0,0,0,0.0926,0.094,0.1077,0.1051,0.1055,0.1062,0.1073,0.1143,0.1187,0.1124,0.1125,0.1137,0.1236,0.1263,0.1273,0.138,0.1311,0.1317,0.1321,0.1324,0.1553,0.1555,0,0,0,0,0,0,0.0913,0.0934,0.1074,0.1081,0.0988,0.1067,0.108,0.1112,0.1185,0.1195,0.1138,0.1137,0.1253,0.1265,0.1277,0.1372,0.1318,0.1325,0.1328,0.1551,0.1553,0.1556,0,0,0,0,0,0,0.0909,0.0926,0.1069,0.1008,0.1026,0.1072,0.1108,0.1115,0.1142,0.1196,0.1205,0.1157,0.1252,0.1268,0.1344,0.1377,0.1328,0.1334,0.1549,0.1552,0.1555,0.1563,0,0,0,0,0,0,0.0904,0.0924,0.0951,0.1008,0.103,0.1131,0.111,0.1118,0.1152,0.1151,0.1217,0.1226,0.1251,0.1334,0.135,0.1385,0.1339,0.1546,0.155,0.1554,0.156,0.1566,0.1571,0,0,0,0,0,0.0897,0.0951,0.0952,0.0969,0.1063,0.1132,0.1145,0.117,0.1154,0.1184,0.1219,0.1224,0.137,0.1341,0.136,0.1398,0.1544,0.1549,0.1553,0.1558,0.1565,0.1571,0,0,0,0,0,0,0.0902,0.0959,0.0961,0.1035,0.1078,0.1134,0.1172,0.1177,0.1229,0.1227,0.1259,0.1274,0.1349,0.1381,0.1348,0.1476,0.1456,0.1465,0.1453,0.146,0.1465,0.1458,0.1344,0,0,0,0,0,0.091,0.0958,0.1007,0.1068,0.1089,0.1126,0.1158,0.1172,0.122,0.124,0.1281,0.1331,0.1388,0.1426,0.1481,0.1564,0.158,0.1599,0.1604,0.1609,0.1617,0.1665,0.1674,0.1571,0.1571,0.1571,0,0,0.0931,0.0968,0.0997,0.107,0.1105,0.1157,0.1142,0.1198,0.1238,0.125,0.1323,0.1355,0.1413,0.1493,0.153,0.1522,0.1648,0.1615,0.1617,0.1624,0.167,0.168,0.1689,0.1574,0.1574,0.1573,0,0,0.0996,0.1027,0.1081,0.1116,0.1168,0.1192,0.1205,0.126,0.128,0.1353,0.1363,0.1413,0.151,0.1551,0.1585,0.1663,0.1671,0.168,0.1711,0.1757,0.1765,0.1772,0.1803,0.1813,0.1688,0.1688,0.1688,0,0.1016,0.109,0.111,0.1164,0.1197,0.1205,0.1262,0.1297,0.1366,0.139,0.1378,0.15,0.154,0.163,0.1648,0.1675,0.1694,0.1675,0.1761,0.1769,0.1777,0.1806,0.1816,0.1689,0.1689,0.1689,0.1689,0,0.1114,0.1166,0.1204,0.1265,0.1303,0.1359,0.139,0.1425,0.1436,0.1463,0.1539,0.1586,0.1651,0.1673,0.1687,0.1766,0.1759,0.1754,0.1735,0.1787,0.1815,0.1826,0.169,0.169,0.169,0.1689,0,0,0.1187,0.1256,0.127,0.1298,0.1355,0.1398,0.1455,0.1515,0.1546,0.1593,0.1645,0.1726,0.1721,0.1759,0.1777,0.1817,0.1878,0.1807,0.1809,0.1821,0.1971,0.1976,0.1988,0.1882,0.1884,0.1885,0.1966,0,0.1259,0.1357,0.1375,0.1462,0.1511,0.1519,0.1569,0.1612,0.1638,0.1687,0.1718,0.1775,0.1763,0.1786,0.1826,0.1862,0.1909,0.1856,0.1934,0.1936,0.1921,0.2002,0.2008,0.2082,0.1977,0.1979,0.198,0,0.1357,0.1402,0.1492,0.1542,0.1564,0.1608,0.1664,0.1709,0.1759,0.1776,0.1816,0.183,0.1893,0.1868,0.1958,0.1922,0.1955,0.1977,0.1981,0.1992,0.1963,0.2018,0.2107,0.2119,0.1998,0.1996,0.1995,0,0.1404,0.1487,0.1552,0.1576,0.1635,0.1667,0.1694,0.1741,0.1775,0.1826,0.1849,0.1908,0.1941,0.1988,0.2018,0.1996,0.2106,0.2083,0.2125,0.2125,0.2151,0.2149,0.2248,0.2167,0.2167,0.2167,0.2166,0,0.1484,0.154,0.1573,0.1614,0.1677,0.1699,0.1762,0.179,0.1831,0.188,0.1891,0.1938,0.1972,0.2025,0.2049,0.2121,0.2136,0.2154,0.216,0.2154,0.2152,0.2179,0.2175,0.217,0.2169,0.2168,0.2168,0,0.1548,0.1572,0.1644,0.1693,0.1706,0.1751,0.1795,0.1837,0.1861,0.1923,0.1939,0.198,0.2042,0.2075,0.2154,0.217,0.2252,0.2254,0.2234,0.2237,0.2278,0.2274,0.24,0.2418,0.2322,0.2323,0.2324,0,0.1599,0.1641,0.1693,0.1724,0.175,0.1801,0.1835,0.1859,0.1895,0.1953,0.1988,0.2049,0.21,0.2199,0.2239,0.23,0.2306,0.2345,0.2315,0.2308,0.2309,0.2307,0.2313,0.2352,0.2352,0.2353,0.2354,0,0.1687,0.1697,0.1743,0.1794,0.1833,0.1876,0.1918,0.1944,0.1975,0.2015,0.2076,0.2115,0.2193,0.2255,0.2318,0.2351,0.236,0.2362,0.2375,0.2371,0.2359,0.2368,0.2251,0.236,0.2359,0.2359,0.2359,0.2358,0.1748,0.1786,0.1828,0.188,0.1913,0.1952,0.1993,0.2021,0.2071,0.2133,0.2145,0.221,0.226,0.2345,0.2379,0.2433,0.2426,0.2445,0.245,0.2455,0.2458,0.2347,0.2445,0.2444,0.2444,0.2444,0.2444,0,0.1839,0.1865,0.1912,0.1969,0.201,0.2008,0.2055,0.2091,0.2147,0.219,0.2238,0.2309,0.2369,0.2412,0.2474,0.2509,0.2515,0.2525,0.2524,0.2532,0.2459,0.2443,0.2519,0.2519,0.2519,0.2519,0.2519,0.2519,0.1891,0.1956,0.197,0.2052,0.208,0.214,0.2167,0.2204,0.2239,0.2316,0.2364,0.2389,0.2434,0.2499,0.2555,0.2566,0.259,0.26,0.2613,0.2545,0.2537,0.253,0.2514,0.2605,0.2605,0.2681,0.2682,0.2683]},{"header":{"parameterUnit":"m.s-1","parameterCategory":1,"la1":30.2991,"la2":30.254,"lo1":-89.0895,"lo2":-89.0444,"dy":0.0017,"dx":0.0017,"nx":28,"ny":28,"refTime":"2024-06-05T03:00:00:Z","depth":0,"parameterNumber":3,"parameterNumberName":"V-component_of_WINDS"},"data":[0,0,0,0,0,0,0,0,0,0,0,0,0,0,0,0,0,0,0,0,0,0,0,0,0,0,0,0,0,0,0,0,0,0,0,0,0,0,0,0,0,0,0,0,0,0,0,0,0,0,0,0,0,0,0,0,0,0,3.504,3.5041,0,3.5139,3.514,3.5141,3.5152,3.5151,3.515,3.515,3.5241,3.5244,3.5248,0,0,0,0,0,0,0,0,0,0,0,0,0,3.485,3.4854,3.504,3.5042,3.5043,3.5139,3.514,3.5142,3.5153,3.5151,3.515,3.5149,3.524,3.5244,3.5248,0,0,0,0,0,0,0,0,0,0,0,0,0,3.4939,3.4855,3.504,3.506,3.5063,3.5139,3.514,3.5142,3.5153,3.5151,3.515,3.5149,3.5239,3.5244,3.5249,3.5309,0,0,3.5264,3.5266,0,0,0,0,0,0,0,0,3.4934,3.4946,3.5056,3.5059,3.5062,3.5132,3.5107,3.5197,3.5153,3.5118,3.5149,3.5148,3.5205,3.5213,3.5235,3.5313,3.5317,3.5264,3.5267,3.527,3.5271,0,0,0,0,0,0,0,3.4928,3.4942,3.5079,3.5057,3.5061,3.506,3.5072,3.5124,3.5168,3.5121,3.5122,3.5134,3.5207,3.523,3.5237,3.5318,3.5264,3.5269,3.5272,3.5274,3.5448,3.545,0,0,0,0,0,0,3.4919,3.4937,3.5076,3.5082,3.4994,3.5065,3.5077,3.5111,3.5168,3.5176,3.5136,3.5135,3.5222,3.5231,3.524,3.5314,3.527,3.5274,3.5277,3.5447,3.5449,3.545,0,0,0,0,0,0,3.4915,3.4932,3.5072,3.501,3.5028,3.507,3.5107,3.5114,3.5137,3.5179,3.5186,3.5152,3.5221,3.5233,3.5292,3.5317,3.5276,3.5281,3.5445,3.5447,3.5449,3.5461,0,0,0,0,0,0,3.491,3.493,3.4956,3.501,3.5031,3.5125,3.5109,3.5117,3.5147,3.5146,3.5196,3.5202,3.5221,3.5284,3.5297,3.5323,3.5285,3.5443,3.5446,3.5449,3.5459,3.5464,3.5468,0,0,0,0,0,3.4903,3.4954,3.4958,3.4974,3.5065,3.5127,3.5138,3.5161,3.5149,3.5173,3.52,3.5201,3.5312,3.529,3.5304,3.5332,3.5441,3.5445,3.5448,3.5457,3.5463,3.5468,0,0,0,0,0,0,3.4898,3.4961,3.4966,3.5037,3.5077,3.5129,3.5161,3.5167,3.5209,3.5206,3.523,3.5241,3.5298,3.5321,3.5296,3.5392,3.5375,3.5381,3.5376,3.5382,3.5387,3.538,3.5289,0,0,0,0,0,3.4906,3.4955,3.5005,3.5062,3.5082,3.5118,3.5146,3.516,3.5201,3.5217,3.5248,3.5285,3.5328,3.5356,3.5398,3.5461,3.5471,3.5487,3.5492,3.5496,3.5501,3.5535,3.5542,3.5462,3.5462,3.5462,0,0,3.4921,3.4962,3.499,3.5062,3.5095,3.5142,3.5132,3.5182,3.5216,3.5224,3.5282,3.5306,3.5348,3.5409,3.5438,3.543,3.5525,3.55,3.5503,3.5507,3.5539,3.5547,3.5554,3.5465,3.5464,3.5464,0,0,3.4973,3.501,3.5061,3.5094,3.5145,3.5168,3.518,3.5231,3.5248,3.5308,3.5314,3.5353,3.5427,3.5457,3.5482,3.5543,3.5545,3.5556,3.558,3.5613,3.5619,3.5625,3.5646,3.5654,3.5561,3.5561,3.5561,0,3.4985,3.506,3.5085,3.5136,3.5166,3.5178,3.5228,3.5258,3.5318,3.5337,3.5328,3.5421,3.5451,3.5518,3.5534,3.5553,3.5566,3.5551,3.5617,3.5623,3.5628,3.5649,3.5657,3.5562,3.5562,3.5562,3.5562,0,3.5071,3.5122,3.5157,3.5218,3.5252,3.5302,3.5332,3.5362,3.5373,3.5396,3.5454,3.549,3.5539,3.5556,3.5565,3.5624,3.5618,3.5613,3.5595,3.5637,3.5656,3.5665,3.5564,3.5563,3.5563,3.5563,0,0,3.5125,3.52,3.5212,3.524,3.5296,3.5334,3.5382,3.5433,3.5458,3.5498,3.5538,3.56,3.5595,3.5623,3.5636,3.5664,3.571,3.5655,3.5656,3.5664,3.5776,3.5781,3.579,3.5711,3.5713,3.5714,3.5773,0,3.5183,3.5275,3.5299,3.5375,3.5421,3.5432,3.5473,3.551,3.5532,3.5572,3.5594,3.5638,3.5628,3.5645,3.5674,3.5699,3.5733,3.5694,3.5746,3.5748,3.5737,3.58,3.5806,3.5859,3.578,3.5782,3.5783,0,3.5265,3.531,3.5392,3.5441,3.5461,3.5499,3.5547,3.5586,3.5626,3.564,3.5671,3.568,3.5728,3.5708,3.5772,3.5746,3.5768,3.5782,3.5785,3.5791,3.5769,3.5808,3.5877,3.5885,3.5795,3.5794,3.5793,0,3.5296,3.5376,3.5436,3.5459,3.5518,3.5544,3.5569,3.5609,3.5637,3.5677,3.5696,3.574,3.5764,3.5796,3.5816,3.58,3.5878,3.586,3.5889,3.5889,3.5907,3.5905,3.598,3.592,3.5919,3.5919,3.5919,0,3.5359,3.5409,3.5451,3.5487,3.5542,3.5567,3.5619,3.5643,3.5678,3.5717,3.5727,3.5763,3.5787,3.5825,3.584,3.589,3.5901,3.5911,3.5915,3.5911,3.591,3.5927,3.5924,3.5921,3.5921,3.5921,3.592,0,3.5404,3.5434,3.55,3.555,3.5564,3.5602,3.5644,3.5677,3.5699,3.5748,3.5761,3.5794,3.5839,3.5862,3.5917,3.5927,3.5985,3.5985,3.5972,3.5974,3.6002,3.5999,3.6091,3.6104,3.6034,3.6035,3.6035,0,3.5443,3.5482,3.5537,3.5566,3.5593,3.5638,3.5668,3.5692,3.5722,3.577,3.5798,3.5844,3.5883,3.5954,3.598,3.6022,3.6025,3.6053,3.6031,3.6026,3.6025,3.6023,3.6027,3.6058,3.6058,3.6059,3.6059,0,3.551,3.5523,3.5567,3.5617,3.5653,3.5693,3.5731,3.5753,3.5782,3.5815,3.5863,3.5893,3.595,3.5995,3.6039,3.6061,3.6065,3.6066,3.6075,3.6073,3.6064,3.6069,3.5984,3.6064,3.6064,3.6064,3.6063,3.6063,3.5553,3.5588,3.5633,3.5681,3.5713,3.5749,3.5784,3.581,3.5852,3.5903,3.5913,3.5964,3.6,3.606,3.6083,3.6121,3.6114,3.6127,3.6131,3.6134,3.6136,3.6057,3.6128,3.6128,3.6128,3.6128,3.6128,0,3.562,3.565,3.5694,3.575,3.5787,3.579,3.5832,3.5862,3.5908,3.5943,3.5982,3.6035,3.6079,3.6109,3.6152,3.6177,3.6179,3.6187,3.6186,3.6191,3.6139,3.6127,3.6184,3.6184,3.6184,3.6184,3.6184,3.6184,3.566,3.5719,3.5737,3.5811,3.5838,3.5891,3.5915,3.5946,3.5975,3.6036,3.6074,3.6094,3.6126,3.6172,3.6211,3.6218,3.6234,3.6242,3.6249,3.62,3.6195,3.6189,3.6178,3.6245,3.6245,3.6299,3.6299,3.6299]}]]